{"data":{"norad_id":56021,"intl_designator":"2023-042AM","name":"STARLINK-5907","alt_names":[],"object_type":"PAYLOAD","status":"ACTIVE","operator":null,"country":"US","launch_date":"2023-03-24","launch_site_code":"AFETR","launch_vehicle":null,"mission":null,"orbit_class":"UNKNOWN","rcs_meters":null,"size_class":null,"mass_kg":null,"dimensions":null,"purposes":["comms"],"wikipedia_slug":null,"has_3d_model":false,"image_url":null,"decayed_at":null,"tle_current":{"epoch":"2026-09-19T16:35:40.607808Z","epoch_age_seconds":176088,"freshness":"STALE","line1":"1 56021U 23042AM  26262.69144222  .00000873  00000+0  41259-4 0  9995","line2":"2 56021  43.0039  29.7669 0002466 271.3378  88.7191 15.27591065192707","mean_motion":15.27591065,"eccentricity":0.0002466,"inclination_deg":43.0039,"raan_deg":29.7669,"arg_perigee_deg":271.3378,"mean_anomaly_deg":88.7191,"bstar":4.1259e-5,"rev_number":19270,"period_min":94.266065898991,"perigee_km":481.3240033282,"apogee_km":484.70792396987,"semimajor_km":6861.152963649,"source":"CELESTRAK","updated_at":"2026-09-21T09:00:33.356771Z"}}}